Simultaneous Nadir Overpasses (SNOs) Predictions

Prediction of SNOs between GOES-15 and LANDSAT-8 Satellite Orbit:

Table of predicted SNOs for the next 14.0 days since TLE Epoch: 6/29/2024
Index Date Time (GOES-15) GOES-15 Lat,Lon LANDSAT-8 Lat,Lon Distance(km) Time Diff (sec)
1 06/29/2024 06:10:41 -0.08, 61.18 0.02, 60.56 69.96 80
2 07/01/2024 05:55:49 -0.09, 61.17 -0.57, 63.53 267.88 80
3 07/01/2024 18:19:53 0.05, 61.22 -0.54, 58.34 326.76 80
4 07/03/2024 18:05:01 0.06, 61.21 0.08, 61.30 10.50 80
5 07/05/2024 17:52:49 0.07, 61.21 0.73, 64.26 347.54 80
6 07/06/2024 06:16:44 -0.03, 61.15 0.39, 59.11 231.77 80
7 07/08/2024 06:01:51 -0.05, 61.15 -0.23, 62.08 105.24 80
8 07/08/2024 18:25:54 0.01, 61.21 -0.91, 56.90 489.74 80
9 07/10/2024 05:49:38 -0.06, 61.15 -0.87, 65.05 442.52 80
10 07/10/2024 18:13:41 0.02, 61.21 -0.26, 59.87 152.34 80
11 07/12/2024 17:58:47 0.03, 61.21 0.36, 62.84 185.06 80
